Retour au catalogue

STARLINK-2467

ActifCommunicationsVLEO
NORAD 48126·PAYLOAD·🇺🇸 United States

Lancé Apr 7, 2021 depuis Cape Canaveral Space Force Station

Loading…

Prochains Passages (prochaines 24 heures)

TLE

FraisSource: CelesTrak SupGP

Époque: Sep 15, 2026, 00:23 UTC

1 48126C 21027AL  26258.01645833  .00001240  00000+0  39863-4 0  2583
2 48126  53.1587 351.3836 0001185  91.4148 210.6124 15.31705398    12

Suivez STARLINK-2467 en temps réel avec AllMySat

Download on the App Store